Ashland, MO

4:59 AM CDT on September 30, 2016 (GMT -0500)
Columbia Regional

Weather History for KCOU - October, 2014

Change the Weather History Date:

Monday, October 27, 2014

  Actual Average Record
Temperature  
Mean Temperature 70 °F 53 °F  
Max Temperature 78 °F 63 °F 87 °F (1927)
Min Temperature 62 °F 42 °F 24 °F (1925)
Degree Days  
Heating Degree Days 0 13  
Month to date heating degree days 181 244  
Since 1 July heating degree days 228 312  
Cooling Degree Days 5 0  
Month to date cooling degree days 18 15  
Year to date cooling degree days 1266 1242  
Growing Degree Days 21 (Base 50)    
Moisture  
Dew Point 59 °F    
Average Humidity 65    
Maximum Humidity 81    
Minimum Humidity 48    
Precipitation  
Precipitation 0.29 in 0.09 in 2.27 in (1919)
Month to date precipitation 10.15 2.93  
Year to date precipitation 40.59 36.55  
Snow  
Snow 0.00 in 0.00 in 0.80 in (1925)
Month to date snowfall 0.0 0.0  
Since 1 July snowfall 0.0 0.0  
Since 1 September snowfall 0.0 0.0  
Snow Depth 0.00 in    
Sea Level Pressure  
Sea Level Pressure 29.68 in    
Wind  
Wind Speed 11 mph (SSW)    
Max Wind Speed 28 mph    
Max Gust Speed 35 mph    
Visibility 10 miles    
Events Rain    
T = Trace of Precipitation, MM = Missing Value Source: NWS Daily Summary

Daily Weather History Graph

Daily Weather History Graph

Search for Another Location

Airport or City:

Trip Planner

Search our weather history database for the weather conditions in past years. The results will help you decide how hot, cold, wet, or windy it might be!

Date:

Astronomy

Oct. 27, 2014 Rise Set
Actual Time 7:30 AM CDT 6:14 PM CDT
Civil Twilight 7:03 AM CDT 6:41 PM CDT
Nautical Twilight 6:31 AM CDT 7:12 PM CDT
Astronomical Twilight 6:01 AM CDT 7:43 PM CDT
Moon 11:05 AM CDT (10/27) 9:21 PM CDT (10/27)
Length of Visible Light 11h 38m
Length of Day
10h 43m
Waxing Crescent, 15% of the Moon is Illuminated
Oct 27
Waxing Crescent
Oct 30
First Quarter
Nov 6
Full
Nov 14
Last Quarter
Nov 22
New

Hourly Weather History & Observations

Time (CDT) Temp. Dew Point Humidity Pressure Visibility Wind Dir Wind Speed Gust Speed Precip Events Conditions
12:54 AM 68.0 °F 59.0 °F 73% 29.71 in 10.0 mi South 9.2 mph - N/A   Clear
1:54 AM 66.9 °F 60.1 °F 79% 29.70 in 10.0 mi South 10.4 mph - N/A   Clear
2:54 AM 66.9 °F 60.1 °F 79% 29.70 in 10.0 mi South 9.2 mph - N/A   Clear
3:54 AM 66.0 °F 59.0 °F 78% 29.68 in 10.0 mi South 10.4 mph - N/A   Clear
4:54 AM 66.0 °F 59.0 °F 78% 29.68 in 10.0 mi South 10.4 mph - N/A   Clear
5:54 AM 66.0 °F 57.9 °F 75% 29.67 in 10.0 mi South 10.4 mph - N/A   Clear
6:54 AM 66.0 °F 57.9 °F 75% 29.67 in 10.0 mi South 11.5 mph - N/A   Clear
7:54 AM 66.0 °F 57.0 °F 73% 29.66 in 10.0 mi South 9.2 mph - N/A   Clear
8:54 AM 66.9 °F 57.9 °F 73% 29.68 in 10.0 mi South 9.2 mph - N/A   Clear
9:54 AM 70.0 °F 57.0 °F 63% 29.67 in 10.0 mi South 11.5 mph - N/A   Clear
10:54 AM 71.1 °F 57.0 °F 61% 29.67 in 10.0 mi South 12.7 mph - N/A   Clear
11:54 AM 73.0 °F 57.9 °F 59% 29.68 in 10.0 mi South 10.4 mph - N/A   Clear
12:54 PM 73.9 °F 59.0 °F 59% 29.65 in 10.0 mi South 9.2 mph - N/A   Clear
1:54 PM 77.0 °F 57.9 °F 52% 29.62 in 10.0 mi SSW 19.6 mph 25.3 mph N/A   Clear
2:54 PM 78.1 °F 57.9 °F 50% 29.60 in 10.0 mi SSW 17.3 mph 26.5 mph N/A   Clear
3:54 PM 77.0 °F 57.0 °F 50% 29.63 in 10.0 mi SW 18.4 mph 35.7 mph N/A   Clear
4:54 PM 75.9 °F 57.9 °F 54% 29.65 in 10.0 mi SW 15.0 mph - N/A   Clear
5:54 PM 73.0 °F 59.0 °F 61% 29.66 in 10.0 mi SSW 8.1 mph - N/A   Clear
6:54 PM 73.0 °F 59.0 °F 61% 29.69 in 10.0 mi SW 10.4 mph - 0.00 in Rain Light Rain
7:54 PM 72.0 °F 59.0 °F 64% 29.71 in 10.0 mi SW 8.1 mph - 0.00 in   Overcast
8:54 PM 71.1 °F 60.1 °F 68% 29.73 in 10.0 mi SW 8.1 mph - N/A   Overcast
9:54 PM 69.1 °F 62.1 °F 78% 29.75 in 10.0 mi West 11.5 mph - 0.00 in Rain Light Rain
10:54 PM 66.9 °F 62.1 °F 84% 29.75 in 10.0 mi SW 6.9 mph - 0.00 in   Overcast
11:54 PM 64.9 °F 62.1 °F 90% 29.78 in 3.0 mi WNW 10.4 mph - 0.11 in Rain Heavy Rain